Location: Newark
(42.9858°N, 0.6717°E)
Time: 07:03:45
(UTC+00:00)

ISS - Visible Passes

Search period start: 20 October 2020 00:00
Search period end: 30 October 2020 00:00
Orbit: 418 x 419 km, 51.6° (Epoch: 20 October)

Date Brightness Start Highest point End Pass type
(mag) Time Alt. Az. Time Alt. Az. Time Alt. Az.
20 Oct -0.7 05:37:28 10° SSE 05:39:21 14° SE 05:41:14 10° E visible
22 Oct -2.3 05:37:12 10° SSW 05:40:21 38° SE 05:43:30 10° ENE visible
23 Oct -1.5 04:50:01 10° S 04:52:44 23° SE 04:55:28 10° E visible
24 Oct -1.0 04:04:39 14° SE 04:05:11 14° SE 04:07:02 10° E visible
24 Oct -3.8 05:38:12 10° WSW 05:41:33 77° NW 05:44:56 10° NE visible
25 Oct -3.5 04:52:30 32° SW 04:53:50 65° SE 04:57:11 10° ENE visible
26 Oct -1.8 04:07:11 29° E 04:07:11 29° E 04:09:19 10° ENE visible
26 Oct -2.9 05:40:10 12° W 05:42:58 35° NNW 05:46:07 10° NE visible
27 Oct -3.5 04:54:43 46° WNW 04:55:08 50° NNW 04:58:27 10° NE visible
28 Oct -1.6 04:09:09 25° NE 04:09:09 25° NE 04:10:44 10° NE visible
28 Oct -2.2 05:42:07 12° WNW 05:44:33 22° NNW 05:47:18 10° NE visible
29 Oct -2.5 04:56:29 27° NNW 04:56:38 27° NNW 04:59:35 10° NE visible
